Location: Newenden
(51.0000°N, 0.6167°E)
Time: 09:55:23
(UTC+00:00)

Daily predictions for brighter satellites

Satellite Brightness Start Highest point End
(mag) Time Altitude Azimuth Time Altitude Azimuth Time Altitude Azimuth
SPOT 1/Viking Rocket 3.7 19:22:12 10° SSE 19:27:25 84° WSW 19:32:41 10° NNW
USA 267 3.3 19:21:01 10° ENE 19:27:34 68° SE 19:34:05 10° SW
Okean O Rocket 1.7 19:27:09 10° SSE 19:31:27 62° ENE 19:35:48 10° N
Feng Yun 1-1 Rocket 4.3 19:26:53 10° SSE 19:32:26 83° ENE 19:38:12 10° NNW
Cosmos 1486 Rocket 4.0 19:28:45 10° NNW 19:34:00 76° ENE 19:39:12 10° SSE
Cosmos 1782 Rocket 3.8 19:30:43 10° SSW 19:35:06 76° W 19:39:34 10° N
CZ-4 R/B 2.2 19:32:42 10° S 19:36:31 53° W 19:40:19 10° NNW
Cosmos 1536 Rocket 4.2 19:36:46 10° N 19:40:55 38° ENE 19:45:04 10° SE
SJ 16-02 3.4 19:38:22 10° NW 19:42:03 27° W 19:45:41 10° SSW
DELTA 2 DEB (DPAF) 4.0 19:41:29 10° NNE 19:45:43 64° ESE 19:49:54 10° S
Resurs 01 Rocket 1.6 19:41:47 10° SSE 19:46:12 87° E 19:50:40 10° NNW
CENTAUR R/B 4.0 19:41:01 10° NW 19:48:01 40° NNE 19:56:10 10° E
NOSS 3-1 (A) 3.3 19:46:47 10° SSW 19:51:32 47° ESE 19:57:12 10° NE
Cosmos 1300 Rocket 4.1 19:49:12 10° SSW 19:53:33 63° WNW 19:57:57 10° N
ERS-1 Rocket 4.0 19:51:26 10° ESE 19:55:37 29° ENE 19:59:54 10° N
Cosmos 1934 Rocket 4.2 19:53:45 10° N 19:59:48 55° ENE 20:05:54 10° SSE
USA 229 DEB 4.4 19:55:52 10° SSE 20:00:47 26° ESE 20:06:04 10° ENE
USA 229 4.4 19:55:59 10° SSE 20:00:54 26° ESE 20:06:09 10° ENE
Cosmos 2151 Rocket 3.8 19:58:52 10° SSE 20:03:06 48° E 20:07:23 10° NNE
USA 234 3.8 19:58:56 10° SE 20:05:19 54° SW 20:11:43 10° WNW
USA 281 3.3 19:59:48 10° SSE 20:06:23 89° ENE 20:13:01 10° NNW
ATLAS CENTAUR R/B 2.9 20:03:52 10° NNW 20:06:53 23° NNE 20:09:58 10° E
Cosmos 2227 Rocket 3.1 20:02:42 10° NNW 20:07:56 36° NE 20:12:21 14° ESE
NOSS 3-1 (C) 3.4 20:06:48 10° SW 20:11:53 75° NW 20:18:07 10° NE
Iridium 2 3.4 20:09:29 10° N 20:12:21 44° E 20:14:16 18° SSE
SL-4 R/B 1.6 20:11:45 10° W 20:15:24 88° N 20:17:57 17° E
Cosmos 371 Rocket 3.3 20:11:46 10° NNW 20:16:35 80° WSW 20:21:07 11° SSE
Landsat 4 4.0 20:17:01 19° SE 20:19:12 42° ENE 20:22:34 10° N
Cosmos 304 Rocket 3.7 20:15:38 10° NNW 20:20:26 89° WSW 20:24:31 14° SSE
MetOp-B 4.2 20:15:38 12° SSE 20:20:34 68° ENE 20:25:55 10° N
Cosmos 1697 Rocket 4.0 20:18:57 16° SE 20:20:57 19° E 20:24:52 10° NE
Cosmos 1777 Rocket 4.0 20:15:43 10° NNW 20:21:01 87° WSW 20:25:46 13° SSE
COSMOS 2455 3.0 20:17:26 10° NW 20:23:28 64° NE 20:27:59 18° SE
Alouette 2 Rocket 4.5 20:15:46 10° NNW 20:23:47 77° ENE 20:28:14 14° SSE
Okean 2 Rocket 3.0 20:20:38 10° S 20:25:07 75° E 20:29:38 10° NNE
ATLAS 3B R/B 2.9 20:18:10 10° SW 20:25:20 83° SE 20:33:01 10° NE
NOSS 8 (E) 4.4 20:27:06 10° NW 20:30:07 67° NE 20:31:59 25° ESE
SPOT 5 3.1 20:26:03 14° SSE 20:30:45 77° ENE 20:35:59 10° NNW
IRS-1A Rocket 4.4 20:28:47 14° SSE 20:33:53 76° ENE 20:39:43 10° NNW
Cosmos 405 Rocket 3.8 20:33:26 23° ESE 20:34:04 24° E 20:37:07 10° NE
CZ-4C R/B 3.1 20:29:44 10° NW 20:36:27 65° NE 20:42:37 19° ESE
Cosmos 2297 Rocket 2.2 20:30:54 10° NNW 20:36:36 84° ENE 20:40:35 20° SSE
BlueWalker 3 2.2 20:34:14 10° SW 20:37:53 44° SSE 20:40:37 16° E
Spot 2 Rocket 3.8 20:36:25 21° SE 20:39:31 50° ENE 20:44:24 10° N
Cosmos 1354 Rocket 4.4 20:36:18 10° NNW 20:41:35 65° WSW 20:45:57 15° S
Terra 2.0 20:40:08 23° SE 20:42:55 56° ENE 20:47:33 10° N
Cosmos 1656 3.6 20:38:14 10° SSW 20:43:42 62° ESE 20:49:09 10° NE
Cosmos 1455 Rocket 3.7 20:46:45 27° SE 20:48:17 36° E 20:52:17 10° NNE
Okean 1 Rocket 3.0 20:44:01 10° S 20:48:28 80° E 20:52:58 10° NNE
ATLAS 5 CENTAUR R/B 2.6 20:45:32 10° WSW 20:48:47 38° NW 20:52:31 10° NE
Sich 1 Rocket 4.0 20:44:28 10° SSW 20:48:51 65° WNW 20:53:18 10° N
Cosmos 332 Rocket 3.7 20:44:14 10° NNW 20:49:08 81° ENE 20:51:53 26° SSE
Iridium 4 Rocket 3.7 20:44:01 10° S 20:49:31 82° E 20:55:24 10° N
USA 245 3.7 20:46:54 21° SSE 20:50:16 76° ENE 20:54:32 10° N
Cosmos 2219 3.9 20:46:03 10° NNW 20:51:26 42° NE 20:54:33 23° ESE
Okean-O 3.7 20:48:54 10° S 20:53:04 42° W 20:57:16 10° NNW
CZ-4C R/B 3.8 20:52:01 10° N 20:55:22 50° WNW 20:58:38 10° SSW
Cosmos 1437 Rocket 2.8 20:55:12 10° N 20:59:05 59° ENE 21:00:22 38° SE
Genesis I 4.4 20:55:55 10° WNW 20:59:08 30° WSW 21:00:43 21° SSW
Ariane Rocket 3.0 20:56:31 27° SSE 20:59:19 73° ENE 21:04:22 10° NNW
Cosmos 1763 Rocket 3.6 20:57:45 22° S 21:00:47 48° ESE 21:05:45 10° NNE
Cosmos 2263 Rocket 3.1 20:58:03 10° NNW 21:03:15 36° NE 21:06:06 22° E
Cosmos 44 3.5 21:00:05 10° SSW 21:05:25 62° SE 21:10:40 10° NE
Okean O Rocket 4.2 21:05:14 10° SW 21:08:09 17° W 21:11:06 10° NW
Cosmos 990 Rocket 3.9 21:04:10 10° NNW 21:09:23 86° WSW 21:11:52 31° SSE
USA 267 3.7 21:04:08 10° ENE 21:10:35 64° NNW 21:17:03 10° W
ARGOS Delta rocket 4.2 21:08:36 31° SE 21:11:09 64° ENE 21:16:35 10° N
Cosmos 2173 Rocket 4.5 21:08:09 10° N 21:14:19 47° ENE 21:17:01 30° SE
NOSS 3-2 (A) 4.4 21:07:34 10° NW 21:14:22 54° NE 21:19:58 21° ESE
Cosmos 1605 Rocket 4.2 21:08:15 10° NNW 21:14:39 76° W 21:19:09 20° S
Aureole 1 Rocket 1.9 21:12:51 10° NNW 21:15:50 78° ENE 21:15:56 77° E
Cosmos 540 Rocket 3.6 21:18:45 35° SSE 21:20:30 52° ESE 21:25:29 10° NNE
Cosmos 1153 Rocket 4.4 21:16:24 10° N 21:22:45 80° E 21:25:55 31° SSE
Resurs 01 Rocket 4.4 21:21:20 10° WSW 21:23:17 13° W 21:25:16 10° WNW
Cosmos 2058 2.8 21:21:46 10° N 21:25:48 68° ENE 21:26:27 56° SE
MOS 1 Rocket 3.0 21:25:21 48° SE 21:26:26 72° ENE 21:30:50 10° N
Cosmos 1626 Rocket 3.9 21:24:07 10° N 21:28:24 48° ENE 21:29:06 43° ESE
Cosmos 372 Rocket 4.1 21:25:17 10° NNW 21:30:30 62° ENE 21:32:09 41° ESE
Cosmos 468 Rocket 3.9 21:31:31 38° S 21:33:20 62° ESE 21:38:31 10° NNE
ERS-1 Rocket 3.7 21:31:22 24° SSW 21:34:10 48° W 21:39:03 10° NNW
Cosmos 546 4.4 21:30:35 10° W 21:34:19 72° SSW 21:34:19 72° SSW
Cosmos 1802 Rocket 4.4 21:30:45 10° N 21:36:51 50° ENE 21:38:59 36° ESE
SPOT 3 Rocket 3.8 21:35:46 32° S 21:38:07 63° WSW 21:43:18 10° NNW
CENTAUR R/B 3.3 21:31:50 10° NW 21:39:52 80° NE 21:44:47 31° SE
NOSS 3-1 (A) 4.3 21:37:18 10° WSW 21:42:23 46° NNW 21:48:38 10° NE
Landsat 5 3.3 21:38:24 10° NNE 21:42:40 78° ESE 21:43:13 65° SSE
Cosmos 1869 4.2 21:43:56 33° ENE 21:43:56 33° ENE 21:46:41 10° NNE
Cosmos 841 Rocket 4.0 21:43:35 38° E 21:43:35 38° E 21:48:07 10° NE
Cosmos 2016 Rocket 4.4 21:38:13 10° N 21:44:07 47° ENE 21:45:55 37° ESE
ATLAS CENTAUR R/B 1.1 21:41:14 10° NW 21:45:00 71° SW 21:45:05 71° SW
Cosmos 1844 Rocket 4.4 21:42:58 10° NNW 21:47:24 23° NE 21:50:30 15° E
Intercosmos 25 3.2 21:43:03 10° N 21:47:58 78° E 21:48:13 73° ESE
Cosmos 1544 Rocket 3.6 21:49:27 57° E 21:49:27 57° E 21:53:40 10° NNE
USA 229 DEB 3.6 21:44:40 10° SW 21:50:55 82° NW 21:57:53 10° NE
USA 229 3.6 21:44:46 10° SW 21:51:00 83° NW 21:57:57 10° NE
Cosmos 2100 Rocket 3.9 21:45:32 10° N 21:51:57 84° E 21:54:16 42° SSE
Cosmos 2227 Rocket 2.7 21:46:42 10° NW 21:52:13 52° WSW 21:54:10 36° SSW
Cosmos 1727 Rocket 3.9 21:49:08 32° S 21:52:19 90° E 21:58:36 10° N
SL-4 R/B 3.2 21:50:45 10° W 21:52:47 26° WSW 21:52:47 26° WSW
H-2A R/B 3.5 21:54:16 29° ENE 21:54:16 29° ENE 21:57:20 10° N
Cosmos 1980 Rocket 2.4 21:55:14 46° ESE 21:55:28 47° ESE 22:00:52 10° NE
Cosmos 292 Rocket 3.7 21:51:21 10° NNW 21:56:05 78° WSW 21:56:52 61° S
Cosmos 1937 Rocket 3.4 21:57:22 10° NNW 22:02:43 85° WSW 22:03:46 58° SSE
Cosmos 1000 Rocket 4.3 22:01:36 45° S 22:03:38 79° E 22:09:48 10° NNE
Okean 1-7 Rocket 3.6 21:59:23 10° N 22:03:56 69° ENE 22:04:09 68° E
Cosmos 1697 Rocket 2.7 22:00:32 23° SSW 22:04:13 83° WNW 22:09:56 10° NNE
Cosmos 2123 Rocket 4.1 22:05:45 48° SE 22:07:13 59° E 22:13:26 10° NNE
MetOp-A 4.0 22:08:40 44° WSW 22:08:45 44° W 22:12:25 10° NNW
COSMOS 2455 4.1 22:03:51 10° NW 22:09:03 31° WSW 22:11:08 25° SW
Cosmos 405 Rocket 4.3 22:07:46 23° WSW 22:09:11 31° WNW 22:12:32 10° N
CZ-2C R/B 4.2 22:06:33 10° NNE 22:10:47 47° E 22:10:47 47° E
Cosmos 1602 Rocket 3.5 22:06:58 10° N 22:11:18 75° ENE 22:11:18 75° ENE
Cosmos 1758 Rocket 3.4 22:07:31 10° N 22:12:01 85° E 22:12:06 84° ESE
Cosmos 2228 3.1 22:14:50 62° NE 22:14:50 62° NE 22:18:32 10° NNE
Cosmos 1898 Rocket 3.9 22:10:14 10° NNW 22:15:20 51° WSW 22:16:18 45° SW
BlueWalker 3 2.7 22:12:14 10° W 22:15:07 47° WNW 22:15:07 47° WNW
ATLAS 3B R/B 4.1 22:09:55 10° W 22:16:51 42° NNW 22:24:10 10° NE
ARIANE 5 R/B 2.6 22:17:17 71° E 22:17:20 71° ENE 22:21:50 10° N
Cosmos 2297 Rocket 4.2 22:16:05 10° WNW 22:19:56 19° W 22:22:24 14° SW
Terra 3.7 22:18:50 17° SW 22:20:51 22° W 22:24:31 10° NW
CZ-4C R/B 3.5 22:18:13 10° NW 22:25:02 46° WSW 22:27:43 35° SSW
Cosmos 2369 3.6 22:27:50 63° SE 22:28:02 64° ESE 22:33:38 10° NE
Meteor 2-1 Rocket 4.4 22:28:09 42° SW 22:29:55 65° WNW 22:35:25 10° N
Cosmos 1825 Rocket 3.9 22:26:06 10° N 22:30:02 54° NE 22:30:02 54° NE
Cosmos 1666 4.3 22:27:19 10° N 22:29:23 27° NNE 22:29:23 27° NNE
NOSS 3-2 (C) 4.1 22:23:35 10° NW 22:30:41 68° NE 22:34:32 35° ESE
Lacrosse 4 Rocket 3.7 22:33:41 14° ENE 22:33:41 14° ENE 22:34:22 10° NE
SL-08 R/B 4.4 22:24:50 10° N 22:31:14 84° E 22:32:34 58° SSE
Meteor 2-8 Rocket 4.4 22:26:13 10° N 22:32:25 89° W 22:33:42 59° S
H-2A R/B 4.5 22:30:13 10° ENE 22:30:48 12° ENE 22:30:48 12° ENE
Cosmos 1725 Rocket 3.9 22:27:36 10° N 22:33:49 83° W 22:35:10 57° S
ATLAS 5 CENTAUR R/B 4.3 22:31:18 10° NW 22:33:50 17° N 22:36:40 10° NNE
Cosmos 2233 Rocket 3.9 22:28:02 10° N 22:34:12 71° ENE 22:35:19 58° SE
Cosmos 1459 Rocket 4.3 22:28:55 10° NNW 22:34:49 55° W 22:36:35 41° SW
Cosmos 2219 3.8 22:30:19 10° NW 22:35:37 42° WSW 22:36:27 40° SW
ALOS 2 3.6 22:35:57 37° ENE 22:35:57 37° ENE 22:39:48 10° N
Cosmos 2061 Rocket 4.0 22:34:13 10° N 22:40:42 86° E 22:42:00 60° SSE
Cosmos 1862 4.0 22:37:34 10° N 22:40:37 52° NNW 22:40:37 52° NNW
Cosmos 2263 Rocket 2.5 22:41:57 10° NW 22:47:21 50° WSW 22:47:47 49° SW
Cosmos 2360 Rocket 4.1 22:51:06 16° E 22:51:06 16° E 22:53:15 10° ENE
Cosmos 1271 Rocket 3.9 22:46:33 10° N 22:49:07 37° NNE 22:49:07 37° NNE
USA 267 3.9 22:46:50 10° ENE 22:53:10 54° N 22:59:31 10° WNW
Cosmos 2082 4.2 22:48:36 10° NW 22:53:58 46° WSW 22:54:20 45° WSW
Cosmos 1606 4.2 22:57:44 32° NW 22:57:44 32° NW 23:00:26 10° N
Lacrosse 5 4.2 23:05:57 12° ENE 23:05:57 12° ENE 23:06:23 10° ENE
Cosmos 2333 Rocket 4.1 23:03:47 17° E 23:03:47 17° E 23:06:16 10° ENE
Cosmos 2322 Rocket 3.6 23:03:59 25° E 23:03:59 25° E 23:07:24 10° NE
Cosmos 2219 Rocket 4.5 23:05:42 10° E 23:05:42 10° E 23:06:06 10° E
NOSS 3-2 (A) 4.2 22:58:21 10° NW 23:05:34 59° SW 23:07:20 50° SSW
Spot 4 3.9 23:09:20 74° NW 23:09:20 74° NW 23:13:49 10° NNW
Cosmos 1726 Rocket 4.2 23:10:52 51° NNE 23:10:52 51° NNE 23:14:10 10° NNE
Meteor 2-19 Rocket 4.3 23:16:07 69° SSW 23:16:53 83° W 23:23:02 10° N
Cosmos 1953 Rocket 4.2 23:15:41 10° NNW 23:19:07 54° NNW 23:19:07 54° NNW
SL-16 R/B 2.5 23:22:57 52° E 23:22:57 52° E 23:27:51 10° NE
Cosmos 1844 3.8 23:17:08 10° NNW 23:22:55 70° ENE 23:23:28 66° E
H-2A R/B 4.3 23:30:18 22° WNW 23:30:18 22° WNW 23:32:16 10° NW
CENTAUR R/B 3.9 23:22:49 10° NW 23:30:22 38° WSW 23:31:56 36° SW
USA 238 DEB 3.9 23:23:15 10° NW 23:30:31 82° NE 23:32:58 48° SE
USA 238 3.9 23:23:20 10° NW 23:30:37 82° NE 23:33:05 48° SE
Cosmos 1125 Rocket 3.5 23:26:46 10° NNW 23:31:49 81° N 23:31:49 81° N
Cosmos 1844 Rocket 2.5 23:26:27 10° NNW 23:32:06 88° ENE 23:32:08 87° E
Cosmos 1980 Rocket 3.4 23:36:55 25° W 23:39:36 39° NW 23:44:54 10° NNE
PSLV R/B 4.4 23:35:23 10° NNE 23:39:04 49° NE 23:39:04 49° NE
Meteor 2-14 Rocket 4.4 23:41:04 67° ESE 23:41:25 69° E 23:47:33 10° NNE
Cosmos 1072 Rocket 4.4 23:35:23 10° N 23:41:49 81° E 23:42:32 71° SE
Cosmos 2346 Rocket 4.3 23:42:06 76° S 23:42:39 90° WSW 23:48:57 10° N
Cosmos 2151 4.2 23:40:02 10° NNW 23:42:57 37° NW 23:42:57 37° NW
Cosmos 2278 3.6 23:44:40 81° W 23:44:52 82° WNW 23:50:35 10° NNE
Timation 2 Rocket 4.0 23:40:40 10° NNW 23:47:22 82° ENE 23:48:19 67° SE
